Regional Weather Roundup
Issued by NWS

Home | Current Version | Previous Version | Graphics & Text | Print | Product List | Glossary On
Versions: 1 2 3 4 5 6 7 8 9 10 11 12 13 14 15 16 17 18 19 20 21 22 23 24 25 26 27 28 29 30 31 32 33 34 35 36 37 38 39 40 41 42 43 44 45 46 47 48 49 50
749
ASUS43 KDMX 300506
RWRIA

WEATHER ROUNDUP FOR IOWA
NATIONAL WEATHER SERVICE DES MOINES IA
1200 AM CDT THU MAR 30 2017

NOTE: "FAIR" INDICATES FEW OR NO CLOUDS BELOW 12,000 FEET WITH NO
SIGNIFICANT WEATHER AND/OR OBSTRUCTIONS TO VISIBILITY.

* - THESE STATIONS ARE NOT NWS STATIONS...THUS NOT UNDER NWS
QUALITY CONTROL.  THEY ALSO DO NOT REPORT WEATHER SUCH
AS PRECIPITATION OR FOG.

IAZ001>003-012>014-020>022-031>034-043>046-300600-
   NORTHWEST IOWA

CITY           SKY/WX    TMP DP  RH WIND       PRES   REMARKS
CARROLL *      CLOUDY    41  41 100 E18G25    29.85F
CHEROKEE *     CLOUDY    39  38  94 E18G26    29.89S WCI  30
DENISON *      CLOUDY    41  39  93 E17G24    29.85F
LE MARS *      CLOUDY    41  37  87 NE13G21   29.92S
ORANGE CITY *  CLOUDY    39  37  93 E13G22    29.91F WCI  32
SHELDON *      CLOUDY    39  37  93 NE20      29.91F WCI  30
SIOUX CITY     CLOUDY    40  37  89 NE15G23   29.88S WCI  32
SPENCER        CLOUDY    39  37  92 E24G31    29.91F WCI  28
STORM LAKE *   CLOUDY    37  37 100 E26G36    29.87S WCI  26
$$

IAZ055>058-069>071-079>083-090>094-300600-
   SOUTHWEST IOWA

CITY           SKY/WX    TMP DP  RH WIND       PRES   REMARKS
ATLANTIC *     CLOUDY    43  41  93 NE17      29.75F
AUDUBON *      CLOUDY    41  39  93 E15       29.82F
CLARINDA *     CLOUDY    46  45  93 E13G22    29.74F
COUNCIL BLFS * CLOUDY    41  41 100 NE23      29.72F
CRESTON *      CLOUDY    43  43 100 E22       29.76F
HARLAN  *      CLOUDY    41  41 100 NE13      29.83F
LAMONI         LGT RAIN  46  44  93 NE18G25   29.74F
RED OAK *      MOCLDY    45  43  93 NE16      29.74F
SHENANDOAH *   CLOUDY    46  45  93 NE16G23   29.71F
$$

IAZ047>049-059>061-072>074-084-300600-
   CENTRAL IOWA

CITY           SKY/WX    TMP DP  RH WIND       PRES   REMARKS
AMES           CLOUDY    41  41 100 E16G24    29.84F
ANKENY *       CLOUDY    43  39  87 E16G26    29.83F
BOONE *        CLOUDY    39  39 100 E29G38    29.82F WCI  28
CHARITON *     CLOUDY    43  43 100 NE17G25   29.76F
DES MOINES     CLOUDY    44  41  89 E15G26    29.80F
GRINNELL*      DRIZZLE   41  39  95 NE16      29.87F
MARSHALLTOWN   CLOUDY    40  39  97 E25       29.85F WCI  29
NEWTON *       CLOUDY    41  41 100 E20       29.82F
PELLA *        CLOUDY    42  42  99 E12G18    29.84F
PERRY *        CLOUDY    42  40  93 E17G28    29.82S
$$

IAZ004>006-015-016-023>025-035-036-300600-
   NORTH CENTRAL IOWA

CITY           SKY/WX    TMP DP  RH WIND       PRES   REMARKS
ALGONA *       CLOUDY    37  37 100 E23G29    29.90F WCI  26
CLARION *      CLOUDY    39  39 100 E30G41    29.85F WCI  27
ESTHERVILLE    CLOUDY    38  37  97 E23G32    29.93F WCI  27
FORT DODGE *   CLOUDY    37  36  93 E25G32    29.88S WCI  26
MASON CITY     LGT RAIN  38  36  92 E18G28    29.97F FOG     WCI  28
FOREST CITY *  LGT RAIN  37  36  93 E20G29    29.95F WCI  27
WEBSTER CITY * CLOUDY    39  37  93 E26G35    29.83F WCI  28
IOWA FALLS *   LGT RAIN  40  38  94 E23G30    29.86F WCI  29
$$

IAZ007>011-017>019-026>030-037>042-050>054-066-300600-
   NORTHEAST IOWA

CITY           SKY/WX    TMP DP  RH WIND       PRES   REMARKS
CEDAR RAPIDS   LGT RAIN  41  41 100 E23       29.86F
CHARLES CITY * CLOUDY    39  39 100 E17G25    29.97S FOG     WCI  30
CLINTON *      RAIN      42  39  89 E29       29.86F
DECORAH *      CLOUDY    37  37 100 E15G24    29.98F FOG     WCI  28
DUBUQUE        CLOUDY    39  37  92 E24G32    29.94F FOG     WCI  28
MONTICELLO *   LGT RAIN  41  39  93 E18G31    29.90F
OELWEIN *      CLOUDY    39  39 100 E20G26    29.95R FOG     WCI  30
WATERLOO       RAIN      40  38  93 E15G24    29.95S FOG     WCI  32
$$

IAZ064-065-067-068-078-300600-
   EAST CENTRAL IOWA

CITY           SKY/WX    TMP DP  RH WIND       PRES   REMARKS
DAVENPORT      LGT RAIN  42  39  89 E25G32    29.85F
IOWA CITY      CLOUDY    44  40  85 E18G24    29.88S
MUSCATINE *    LGT RAIN  45  41  87 NE17      29.87S
QUAD CITIES    RAIN      43  39  86 E23G33    29.84F
$$

IAZ062-063-075>077-085>089-095>099-300600-
   SOUTHEAST IOWA

CITY           SKY/WX    TMP DP  RH WIND       PRES   REMARKS
BURLINGTON     LGT RAIN  47  45  93 E22G29    29.77F
FAIRFIELD *    CLOUDY    45  43  93 NE16G26   29.80F FOG
FORT MADISON * LGT RAIN  46  46 100 E13G20    29.80R
KEOKUK *       LGT RAIN  48  46  93 E12       29.76S
OSKALOOSA *    DRIZZLE   42  41  95 E15       29.82F
CENTERVILLE *  LGT RAIN  45  45 100 NE14G22   29.75F
OTTUMWA        CLOUDY    45  43  93 E17       29.81F
WASHINGTON *   CLOUDY    43  43 100 E18G25    29.84S
$$

ABBREVIATIONS USED IN REMARKS
   TC - TEMPERATURES IN CELSIUS
  WCI - WIND CHILL INDEX
   HX - HEAT INDEX
  VSB - VISIBILITY
$$





USA.gov is the U.S. government's official web portal to all federal, state and local government web resources and services.